When you browse on this site, cookies collect data to enhance your experience and personalize the content and advertising you see.
Visit our Privacy Policy to learn more. By continuing to use the site, you agree to this use of cookies and data.
  • en France
  • Liste des pays
  • À 7 jours
  • Température de l'eau
  • Carte météo
  • Widgets météo
  • user-avatar
    Se connecter

    Météo par heure à Wiesbaden

    Ce jour, 25 Janvier, Samedi

    Heure Température Précipitation Vent Pression Humidité
    00:00 0°C° 0 mm 0 m/s 753 mmHg 77%
    01:00 0°C° 0 mm 0 m/s 753 mmHg 78%
    02:00 0°C° 0 mm 0 m/s 753 mmHg 78%
    03:00 0°C° 0 mm 0 m/s 753 mmHg 79%
    04:00 0°C° 0 mm 0 m/s 752 mmHg 79%
    05:00 0°C° 0 mm 0 m/s 752 mmHg 79%
    06:00 0°C° 0 mm 0 m/s 752 mmHg 80%
    07:00 +1°C° 0 mm 1 m/s 752 mmHg 80%
    08:00 0°C° 0 mm 0 m/s 752 mmHg 79%
    09:00 +1°C° 0 mm 0 m/s 753 mmHg 77%
    10:00 +2°C° 0 mm 0 m/s 753 mmHg 76%
    11:00 +3°C° 0 mm 0 m/s 753 mmHg 74%
    12:00 +4°C° 0 mm 0 m/s 752 mmHg 71%
    13:00 +5°C° 0 mm 0 m/s 752 mmHg 69%
    14:00 +4°C° 0 mm 0 m/s 752 mmHg 72%
    15:00 +4°C° 0 mm 0 m/s 752 mmHg 75%
    16:00 +4°C° 0 mm 0 m/s 751 mmHg 78%
    17:00 +3°C° 0 mm 0 m/s 751 mmHg 82%
    18:00 +2°C° 0 mm 0 m/s 751 mmHg 85%
    19:00 +1°C° 0 mm 0 m/s 751 mmHg 88%
    20:00 +1°C° 0 mm 0 m/s 751 mmHg 89%
    21:00 +1°C° 0 mm 0 m/s 751 mmHg 90%
    22:00 +1°C° 0 mm 0 m/s 751 mmHg 92%
    23:00 +1°C° 0 mm 0 m/s 751 mmHg 93%

    Demain, 26 Janvier, Dimanche

    Heure Température Précipitation Vent Pression Humidité
    00:00 +1°C° 0 mm 0 m/s 751 mmHg 93%
    01:00 +1°C° 0 mm 0 m/s 751 mmHg 94%
    02:00 +1°C° 0 mm 0 m/s 750 mmHg 95%
    03:00 +1°C° 0 mm 0 m/s 750 mmHg 95%
    04:00 +1°C° 0 mm 0 m/s 750 mmHg 95%
    05:00 +2°C° 0 mm 1 m/s 750 mmHg 95%
    06:00 +2°C° 0 mm 1 m/s 750 mmHg 96%
    07:00 +1°C° 0 mm 1 m/s 749 mmHg 96%
    08:00 +2°C° 0 mm 1 m/s 750 mmHg 95%
    09:00 +2°C° 0 mm 1 m/s 750 mmHg 94%
    10:00 +3°C° 0 mm 1 m/s 750 mmHg 93%
    11:00 +4°C° 0 mm 1 m/s 750 mmHg 89%
    12:00 +5°C° 0 mm 1 m/s 749 mmHg 85%
    13:00 +6°C° 0 mm 1 m/s 749 mmHg 81%
    14:00 +6°C° 0 mm 1 m/s 749 mmHg 82%
    15:00 +6°C° 0 mm 1 m/s 748 mmHg 84%
    16:00 +6°C° 0 mm 1 m/s 748 mmHg 85%
    17:00 +5°C° 0 mm 1 m/s 748 mmHg 87%
    18:00 +4°C° 0 mm 1 m/s 748 mmHg 89%
    19:00 +4°C° 0 mm 1 m/s 748 mmHg 91%
    20:00 +4°C° 0.1 mm 1 m/s 748 mmHg 92%
    21:00 +4°C° 0.1 mm 1 m/s 748 mmHg 93%
    22:00 +5°C° 0.1 mm 1 m/s 748 mmHg 94%
    23:00 +5°C° 0.2 mm 1 m/s 748 mmHg 95%

    Après-demain, 27 Janvier, Lundi

    Heure Température Précipitation Vent Pression Humidité
    00:00 +5°C° 0.2 mm 1 m/s 748 mmHg 96%
    01:00 +4°C° 0.2 mm 2 m/s 748 mmHg 96%
    02:00 +4°C° 0 mm 2 m/s 747 mmHg 96%
    03:00 +4°C° 0 mm 2 m/s 747 mmHg 96%
    04:00 +5°C° 0 mm 2 m/s 747 mmHg 96%
    05:00 +5°C° 0 mm 2 m/s 746 mmHg 95%
    06:00 +5°C° 0 mm 2 m/s 746 mmHg 95%
    07:00 +4°C° 0 mm 3 m/s 745 mmHg 94%
    08:00 +4°C° 0 mm 3 m/s 745 mmHg 93%
    09:00 +5°C° 0 mm 3 m/s 745 mmHg 92%
    10:00 +5°C° 0 mm 3 m/s 745 mmHg 90%
    11:00 +5°C° 0.1 mm 4 m/s 744 mmHg 89%
    12:00 +5°C° 0.1 mm 4 m/s 744 mmHg 88%
    13:00 +6°C° 0.1 mm 4 m/s 744 mmHg 87%
    14:00 +6°C° 0 mm 4 m/s 743 mmHg 87%
    15:00 +7°C° 0 mm 3 m/s 743 mmHg 88%
    16:00 +7°C° 0 mm 3 m/s 742 mmHg 88%
    17:00 +7°C° 0.4 mm 3 m/s 742 mmHg 89%
    18:00 +5°C° 0.4 mm 3 m/s 741 mmHg 91%
    19:00 +5°C° 0.4 mm 3 m/s 741 mmHg 92%
    20:00 +5°C° 0.3 mm 3 m/s 740 mmHg 93%
    21:00 +5°C° 0.3 mm 3 m/s 740 mmHg 93%
    22:00 +5°C° 0.3 mm 3 m/s 739 mmHg 94%
    23:00 +5°C° 0.2 mm 3 m/s 738 mmHg 93%

    28 Janvier, Mardi

    Heure Température Précipitation Vent Pression Humidité
    00:00 +7°C° 0.2 mm 3 m/s 737 mmHg 92%
    01:00 +6°C° 0.2 mm 4 m/s 736 mmHg 91%
    02:00 +6°C° 0.3 mm 4 m/s 735 mmHg 91%
    03:00 +6°C° 0.3 mm 4 m/s 734 mmHg 90%
    04:00 +6°C° 0.3 mm 4 m/s 732 mmHg 89%
    05:00 +5°C° 1.1 mm 6 m/s 732 mmHg 88%
    06:00 +5°C° 1.1 mm 7 m/s 732 mmHg 87%
    07:00 +5°C° 1.1 mm 8 m/s 731 mmHg 86%
    08:00 +4°C° 0.4 mm 7 m/s 732 mmHg 84%
    09:00 +4°C° 0.4 mm 7 m/s 732 mmHg 82%
    10:00 +3°C° 0.4 mm 6 m/s 733 mmHg 80%
    11:00 +3°C° 0.5 mm 7 m/s 734 mmHg 77%
    12:00 +3°C° 0.5 mm 7 m/s 734 mmHg 74%
    13:00 +2°C° 0.5 mm 8 m/s 735 mmHg 70%
    14:00 +2°C° 0.1 mm 8 m/s 736 mmHg 66%
    15:00 +3°C° 0.1 mm 7 m/s 737 mmHg 62%
    16:00 +3°C° 0.1 mm 7 m/s 738 mmHg 58%
    17:00 +3°C° 0 mm 7 m/s 738 mmHg 63%
    18:00 +2°C° 0 mm 6 m/s 738 mmHg 67%
    19:00 +1°C° 0 mm 6 m/s 739 mmHg 72%
    20:00 +1°C° 0.1 mm 6 m/s 738 mmHg 76%
    21:00 0°C° 0.1 mm 7 m/s 738 mmHg 79%
    22:00 0°C° 0.1 mm 7 m/s 738 mmHg 83%
    23:00 0°C° 0.2 mm 7 m/s 737 mmHg 84%

    29 Janvier, Mercredi

    Heure Température Précipitation Vent Pression Humidité
    00:00 0°C° 0.2 mm 7 m/s 736 mmHg 86%
    01:00 0°C° 0.2 mm 8 m/s 734 mmHg 87%
    02:00 +1°C° 1 mm 8 m/s 734 mmHg 81%
    03:00 +1°C° 1 mm 9 m/s 734 mmHg 75%
    04:00 +1°C° 1 mm 9 m/s 733 mmHg 69%
    05:00 0°C° 0.1 mm 8 m/s 735 mmHg 70%
    06:00 0°C° 0.1 mm 8 m/s 736 mmHg 70%
    07:00 -1°C° 0.1 mm 7 m/s 737 mmHg 71%
    08:00 -1°C° 0 mm 7 m/s 738 mmHg 69%
    09:00 -1°C° 0 mm 7 m/s 739 mmHg 67%
    10:00 -1°C° 0 mm 7 m/s 740 mmHg 65%
    11:00 0°C° 0 mm 7 m/s 741 mmHg 64%
    12:00 +2°C° 0 mm 7 m/s 741 mmHg 64%
    13:00 +3°C° 0 mm 7 m/s 741 mmHg 63%
    14:00 +3°C° 0 mm 7 m/s 741 mmHg 65%
    15:00 +2°C° 0 mm 6 m/s 741 mmHg 68%
    16:00 +2°C° 0 mm 6 m/s 741 mmHg 70%
    17:00 +2°C° 0.7 mm 6 m/s 741 mmHg 77%
    18:00 +1°C° 0.7 mm 6 m/s 741 mmHg 84%
    19:00 -1°C° 0.7 mm 6 m/s 741 mmHg 91%
    20:00 -1°C° 0.3 mm 6 m/s 742 mmHg 90%
    21:00 0°C° 0.3 mm 5 m/s 742 mmHg 89%
    22:00 0°C° 0.3 mm 5 m/s 743 mmHg 87%
    23:00 0°C° 0 mm 5 m/s 743 mmHg 85%

    30 Janvier, Jeudi

    Heure Température Précipitation Vent Pression Humidité
    00:00 0°C° 0 mm 5 m/s 744 mmHg 84%
    01:00 0°C° 0 mm 4 m/s 744 mmHg 82%
    02:00 0°C° 0.1 mm 4 m/s 744 mmHg 85%
    03:00 +1°C° 0.1 mm 4 m/s 744 mmHg 87%
    04:00 +1°C° 0.1 mm 4 m/s 744 mmHg 90%
    05:00 +1°C° 0.2 mm 5 m/s 744 mmHg 87%
    06:00 +2°C° 0.2 mm 6 m/s 743 mmHg 84%
    07:00 +2°C° 0.2 mm 7 m/s 743 mmHg 80%
    08:00 +2°C° 0.1 mm 7 m/s 743 mmHg 80%
    09:00 +3°C° 0.1 mm 7 m/s 743 mmHg 80%
    10:00 +3°C° 0.1 mm 7 m/s 744 mmHg 80%
    11:00 +3°C° 0 mm 6 m/s 744 mmHg 80%
    12:00 +4°C° 0 mm 6 m/s 745 mmHg 81%
    13:00 +4°C° 0 mm 6 m/s 745 mmHg 81%
    14:00 +5°C° 0.1 mm 5 m/s 745 mmHg 82%
    15:00 +5°C° 0.1 mm 5 m/s 745 mmHg 83%
    16:00 +5°C° 0.1 mm 4 m/s 745 mmHg 83%
    17:00 +4°C° 0 mm 4 m/s 745 mmHg 85%
    18:00 +4°C° 0 mm 3 m/s 745 mmHg 86%
    19:00 +4°C° 0 mm 3 m/s 745 mmHg 88%
    20:00 +4°C° 0 mm 3 m/s 745 mmHg 88%
    21:00 +4°C° 0 mm 2 m/s 745 mmHg 89%
    22:00 +4°C° 0 mm 2 m/s 745 mmHg 90%
    23:00 +4°C° 0 mm 2 m/s 745 mmHg 90%
    Voir plus